CW4498 Weather Reports


time (UTC)temp
C
wind
direction
speed
KPH
gust
KPH
rain 1hr
cm
rain 24hr
cm
rain mn
cm
humidity
%
barometer
mb
20260509113100 7 284 0.0 3.2 0.00 0.00 0.00 63 1019.1
20260509111558 7 304 0.0 0.0 0.00 0.00 0.00 64 1019.2
20260509110058 7 304 1.6 6.4 0.00 0.00 0.00 63 1019.2
20260509104558 7 303 0.0 3.2 0.00 0.00 0.00 65 1019.4
20260509103059 7 302 0.0 0.0 0.00 0.00 0.00 65 1019.1
20260509101604 7 303 0.0 4.8 0.00 0.00 0.00 63 1019.2
20260509100055 7 304 0.0 1.6 0.00 0.00 0.00 65 1019.3
20260509094552 7 304 0.0 1.6 0.00 0.00 0.00 64 1019.1
20260509093057 8 304 0.0 4.8 0.00 0.00 0.00 62 1019.3
20260509091552 8 304 1.6 4.8 0.00 0.00 0.00 62 1019.4
20260509090046 7 304 0.0 3.2 0.00 0.00 0.00 63 1019.4
20260509084549 7 304 1.6 4.8 0.00 0.00 0.00 63 1019.4
20260509083048 8 304 0.0 4.8 0.00 0.00 0.00 62 1019.4
20260509081548 8 302 0.0 3.2 0.00 0.00 0.00 61 1019.5
20260509080040 8 302 0.0 0.0 0.00 0.00 0.00 59 1019.5
20260509074551 8 303 0.0 0.0 0.00 0.00 0.00 60 1019.7
20260509073037 8 302 0.0 3.2 0.00 0.00 0.00 60 1019.8
20260509071536 8 303 0.0 1.6 0.00 0.00 0.00 60 1020.0
20260509070034 9 304 0.0 1.6 0.00 0.00 0.00 58 1020.3
20260509064540 10 222 0.0 1.6 0.00 0.00 0.00 57 1020.3
20260509063031 10 96 1.6 8.0 0.00 0.00 0.00 55 1020.3
20260509061531 10 125 1.6 11.3 0.00 0.00 0.00 56 1020.2
20260509060030 10 268 1.6 9.7 0.00 0.00 0.00 56 1020.2
20260509054530 10 105 1.6 8.0 0.00 0.00 0.00 57 1020.4
20260509053030 10 234 0.0 6.4 0.00 0.00 0.00 58 1020.5
20260509051534 10 126 0.0 6.4 0.00 0.00 0.00 60 1020.6
20260509050033 10 129 0.0 3.2 0.00 0.00 0.00 59 1020.6
20260509044528 10 130 0.0 4.8 0.00 0.00 0.00 57 1020.7
20260509043028 11 215 1.6 8.0 0.00 0.00 0.00 57 1020.7
20260509041528 11 272 0.0 1.6 0.00 0.00 0.00 57 1020.7
20260509040030 11 229 0.0 0.0 0.00 0.00 0.00 57 1020.7
20260509034540 11 229 0.0 3.2 0.00 0.00 0.00 56 1020.7
20260509033027 11 164 1.6 6.4 0.00 0.00 0.00 55 1020.6
20260509031528 11 128 0.0 6.4 0.00 0.00 0.00 55 1020.2
20260509030026 11 202 0.0 1.6 0.00 0.00 0.00 55 1020.0
20260509024530 12 128 1.6 6.4 0.00 0.00 0.00 55 1020.0
20260509023028 12 117 1.6 6.4 0.00 0.00 0.00 54 1019.9
20260509021524 13 139 0.0 3.2 0.00 0.00 0.00 52 1019.5
20260509020026 13 129 0.0 3.2 0.00 0.00 0.00 50 1019.4
20260509014524 13 145 3.2 12.9 0.00 0.00 0.00 48 1019.3
20260509013024 14 109 1.6 4.8 0.00 0.00 0.00 46 1019.1
20260509011523 14 149 0.0 4.8 0.00 0.00 0.00 46 1018.7
20260509010029 15 136 0.0 3.2 0.00 0.00 0.00 43 1018.5
20260509004532 16 116 3.2 11.3 0.00 0.00 0.00 39 1018.4
20260509003022 17 106 3.2 11.3 0.00 0.00 0.00 37 1018.4
20260509001525 17 107 1.6 9.7 0.00 0.00 0.00 37 1018.3
20260509000021 16 125 1.6 14.5 0.00 0.00 0.00 39 1018.3
20260508234525 17 78 3.2 19.3 0.00 0.00 0.00 37 1018.4
20260508233020 17 91 6.4 16.1 0.00 0.00 0.00 35 1018.3
20260508231519 17 109 4.8 16.1 0.00 0.00 0.00 36 1018.4
20260508230019 18 136 6.4 14.5 0.00 0.00 0.00 35 1018.0
20260508224522 18 125 6.4 17.7 0.00 0.00 0.00 35 1018.2
20260508223024 17 122 3.2 14.5 0.00 0.00 0.00 35 1018.3
20260508221517 18 125 4.8 19.3 0.00 0.00 0.00 35 1018.4
20260508220015 18 113 1.6 12.9 0.00 0.00 0.00 37 1018.5
20260508214523 17 127 1.6 17.7 0.00 0.00 0.00 37 1018.7
20260508213017 17 129 3.2 16.1 0.00 0.00 0.00 37 1018.7
20260508211513 17 109 6.4 17.7 0.00 0.00 0.00 36 1018.8
20260508210015 17 120 3.2 16.1 0.00 0.00 0.00 36 1018.9
20260508204517 17 280 3.2 11.3 0.00 0.00 0.00 37 1019.1
20260508203016 18 132 6.4 17.7 0.00 0.00 0.00 35 1019.3
20260508201511 17 110 4.8 12.9 0.00 0.00 0.00 37 1019.4
20260508200009 17 107 1.6 9.7 0.00 0.00 0.00 38 1019.4
20260508194507 17 114 8.0 16.1 0.00 0.00 0.00 39 1019.4
20260508193007 17 136 6.4 16.1 0.00 0.00 0.00 39 1019.5
20260508191505 16 105 4.8 17.7 0.00 0.00 0.00 38 1019.6
20260508190014 17 126 4.8 14.5 0.00 0.00 0.00 39 1019.5
20260508184512 16 150 4.8 12.9 0.00 0.00 0.00 38 1019.8
20260508183007 17 123 1.6 8.0 0.00 0.00 0.00 39 1020.0
20260508181501 15 224 3.2 11.3 0.00 0.00 0.00 41 1020.1
20260508180114 16 132 0.0 8.0 0.00 0.00 0.00 42 1020.4
20260508174612 15 127 1.6 4.8 0.00 0.00 0.00 44 1020.5
20260508173058 14 125 1.6 8.0 0.00 0.00 0.00 46 1020.6
20260508171555 14 313 0.0 4.8 0.00 0.00 0.00 50 1020.7
20260508164554 13 341 3.2 8.0 0.00 0.00 0.00 53 1020.7
20260508163051 12 115 1.6 6.4 0.00 0.00 0.00 58 1020.8
20260508161548 12 112 0.0 9.7 0.00 0.00 0.00 59 1020.9
20260508160047 12 215 3.2 11.3 0.00 0.00 0.00 59 1020.8
20260508154547 11 120 1.6 6.4 0.00 0.03 0.00 63 1020.8
20260508153054 9 19 3.2 9.7 0.00 0.03 0.00 64 1020.9
20260508151546 9 121 3.2 11.3 0.00 0.03 0.00 65 1021.0
20260508150044 8 39 4.8 9.7 0.00 0.03 0.00 69 1021.4
20260508144550 7 108 6.4 12.9 0.00 0.10 0.00 72 1021.3
20260508143047 7 298 6.4 16.1 0.00 0.10 0.00 73 1021.4
20260508141553 7 36 3.2 17.7 0.00 0.10 0.00 76 1021.6
20260508140041 6 132 3.2 20.9 0.00 0.10 0.00 76 1021.6
20260508134538 7 24 6.4 12.9 0.00 0.13 0.00 70 1021.5
20260508133034 8 93 0.0 6.4 0.00 0.13 0.00 59 1020.8
20260508131531 11 36 4.8 16.1 0.00 0.13 0.00 40 1020.2
20260508130037 11 319 4.8 9.7 0.00 0.13 0.00 42 1020.1
20260508124535 10 19 1.6 8.0 0.00 0.13 0.00 44 1020.1
20260508123030 9 269 1.6 4.8 0.00 0.13 0.00 48 1020.2
20260508121530 8 277 1.6 4.8 0.00 0.13 0.00 49 1020.1
20260508120027 8 279 0.0 3.2 0.00 0.13 0.00 49 1020.0
20260508114527 8 290 1.6 6.4 0.00 0.13 0.00 49 1019.8